| time (UTC) | temp C | wind direction | speed KPH | gust KPH | rain 1hr cm | rain 24hr cm | rain mn cm | humidity % | barometer mb |
| 20260502214507 | 7 | 63 | 3.2 | 25.7 | 0.00 | 0.00 | 0.00 | 71 | 1016.0 |
| 20260502213007 | 7 | 64 | 3.2 | 25.7 | 0.00 | 0.00 | 0.00 | 71 | 1015.9 |
| 20260502211515 | 7 | 55 | 4.8 | 25.7 | 0.00 | 0.00 | 0.00 | 71 | 1015.9 |
| 20260502210005 | 8 | 90 | 1.6 | 25.7 | 0.00 | 0.00 | 0.00 | 68 | 1016.2 |
| 20260502204503 | 7 | 64 | 1.6 | 25.7 | 0.00 | 0.00 | 0.00 | 70 | 1016.0 |
| 20260502203004 | 7 | 63 | 1.6 | 25.7 | 0.00 | 0.00 | 0.00 | 70 | 1016.1 |
| 20260502201506 | 8 | 84 | 1.6 | 25.7 | 0.00 | 0.00 | 0.00 | 69 | 1016.1 |
| 20260502200002 | 8 | 49 | 0.0 | 25.7 | 0.00 | 0.00 | 0.00 | 68 | 1016.2 |
| 20260502194501 | 8 | 63 | 3.2 | 25.7 | 0.00 | 0.00 | 0.00 | 67 | 1016.2 |
| 20260502193001 | 9 | 60 | 1.6 | 25.7 | 0.00 | 0.00 | 0.00 | 66 | 1016.1 |
| 20260502191601 | 10 | 77 | 1.6 | 25.7 | 0.00 | 0.00 | 0.00 | 65 | 1015.8 |
| 20260502190100 | 11 | 58 | 1.6 | 25.7 | 0.00 | 0.00 | 0.00 | 57 | 1015.8 |
| 20260502184559 | 11 | 65 | 3.2 | 25.7 | 0.00 | 0.00 | 0.00 | 60 | 1015.7 |
| 20260502183102 | 12 | 101 | 3.2 | 25.7 | 0.00 | 0.00 | 0.00 | 54 | 1015.4 |
| 20260502181559 | 12 | 49 | 4.8 | 25.7 | 0.00 | 0.00 | 0.00 | 51 | 1015.2 |
| 20260502180105 | 13 | 63 | 3.2 | 25.7 | 0.00 | 0.00 | 0.00 | 48 | 1015.1 |
| 20260502163112 | 18 | 94 | 9.7 | 25.7 | 0.00 | 0.00 | 0.00 | 33 | 1014.8 |
| 20260502161555 | 18 | 88 | 12.9 | 25.7 | 0.00 | 0.00 | 0.00 | 34 | 1014.9 |
| 20260502151553 | 18 | 92 | 12.9 | 24.1 | 0.00 | 0.00 | 0.00 | 36 | 1015.4 |
| 20260502123030 | 17 | 255 | 8.0 | 16.1 | 0.00 | 0.00 | 0.00 | 41 | 1017.4 |
| 20260502121528 | 17 | 220 | 8.0 | 16.1 | 0.00 | 0.00 | 0.00 | 40 | 1017.6 |
| 20260502114529 | 17 | 266 | 9.7 | 17.7 | 0.00 | 0.00 | 0.00 | 42 | 1017.9 |
| 20260502113025 | 17 | 269 | 11.3 | 19.3 | 0.00 | 0.00 | 0.00 | 45 | 1018.2 |
| 20260502111517 | 16 | 285 | 8.0 | 17.7 | 0.00 | 0.00 | 0.00 | 45 | 1018.3 |
| 20260502110018 | 16 | 285 | 11.3 | 20.9 | 0.00 | 0.00 | 0.00 | 46 | 1018.7 |
| 20260502104514 | 15 | 290 | 12.9 | 19.3 | 0.00 | 0.00 | 0.00 | 46 | 1018.9 |
| 20260502103007 | 15 | 296 | 12.9 | 20.9 | 0.00 | 0.00 | 0.00 | 47 | 1019.1 |
| 20260502101505 | 15 | 257 | 12.9 | 19.3 | 0.00 | 0.00 | 0.00 | 50 | 1019.3 |
| 20260502071528 | 10 | 235 | 6.4 | 9.7 | 0.00 | 0.00 | 0.00 | 56 | 1021.0 |
| 20260502070029 | 10 | 219 | 3.2 | 9.7 | 0.00 | 0.00 | 0.00 | 60 | 1021.3 |
| 20260502064539 | 9 | 214 | 3.2 | 9.7 | 0.00 | 0.00 | 0.00 | 62 | 1021.4 |
| 20260502063025 | 10 | 215 | 1.6 | 6.4 | 0.00 | 0.00 | 0.00 | 58 | 1021.4 |
| 20260502061519 | 8 | 83 | 0.0 | 0.0 | 0.00 | 0.00 | 0.00 | 66 | 1021.4 |
| 20260502060029 | 7 | 77 | 0.0 | 0.0 | 0.00 | 0.00 | 0.00 | 74 | 1021.6 |
| 20260502054510 | 6 | 78 | 1.6 | 0.0 | 0.00 | 0.00 | 0.00 | 76 | 1021.8 |
| 20260502053006 | 5 | 88 | 0.0 | 0.0 | 0.00 | 0.00 | 0.00 | 79 | 1021.9 |
| 20260502051505 | -17 | 0.0 | 0.0 | 0.00 | 0.00 | 0.00 | 1021.9 | ||
| 20260502050058 | -17 | 0.0 | 0.0 | 0.00 | 0.00 | 0.00 | 1021.9 | ||
| 20260502044605 | -17 | 0.0 | 0.0 | 0.00 | 0.00 | 0.00 | 1022.1 | ||
| 20260502043122 | -17 | 0.0 | 0.0 | 0.00 | 0.00 | 0.00 | 1022.2 | ||
| 20260502041556 | -17 | 0.0 | 0.0 | 0.00 | 0.00 | 0.00 | 1022.3 | ||
| 20260502040042 | -17 | 0.0 | 0.0 | 0.00 | 0.00 | 0.00 | 1022.5 | ||
| 20260502034538 | 1 | 75 | 1.6 | 4.8 | 0.00 | 0.00 | 0.00 | 87 | 1022.5 |
| 20260502033037 | 1 | 59 | 3.2 | 20.9 | 0.00 | 0.00 | 0.00 | 88 | 1022.7 |
| 20260502031536 | 1 | 66 | 3.2 | 20.9 | 0.00 | 0.00 | 0.00 | 86 | 1022.7 |
| 20260502030035 | 2 | 73 | 3.2 | 20.9 | 0.00 | 0.00 | 0.00 | 87 | 1022.8 |
| 20260502024534 | 1 | 76 | 3.2 | 20.9 | 0.00 | 0.00 | 0.00 | 87 | 1022.8 |
| 20260502023032 | 2 | 92 | 0.0 | 20.9 | 0.00 | 0.00 | 0.00 | 85 | 1022.8 |
| 20260502021529 | 2 | 103 | 1.6 | 20.9 | 0.00 | 0.00 | 0.00 | 84 | 1022.8 |
| 20260502020033 | 2 | 67 | 3.2 | 20.9 | 0.00 | 0.00 | 0.00 | 86 | 1022.8 |
| 20260502014529 | 2 | 67 | 3.2 | 20.9 | 0.00 | 0.00 | 0.00 | 85 | 1022.9 |
| 20260502013023 | 2 | 63 | 3.2 | 20.9 | 0.00 | 0.00 | 0.00 | 83 | 1022.9 |
| 20260502011522 | 2 | 70 | 3.2 | 20.9 | 0.00 | 0.00 | 0.00 | 82 | 1023.1 |
| 20260502010028 | 2 | 53 | 3.2 | 20.9 | 0.00 | 0.00 | 0.00 | 83 | 1023.1 |
| 20260502004527 | 2 | 83 | 1.6 | 20.9 | 0.00 | 0.00 | 0.00 | 84 | 1023.2 |
| 20260502003023 | 2 | 58 | 3.2 | 20.9 | 0.00 | 0.00 | 0.00 | 84 | 1023.2 |
| 20260502001518 | 2 | 73 | 4.8 | 20.9 | 0.00 | 0.00 | 0.00 | 84 | 1023.3 |
| 20260502000021 | 2 | 66 | 1.6 | 20.9 | 0.00 | 0.00 | 0.00 | 83 | 1023.5 |
| 20260501234515 | 2 | 68 | 4.8 | 20.9 | 0.00 | 0.00 | 0.00 | 83 | 1023.6 |
| 20260501233013 | 2 | 71 | 3.2 | 20.9 | 0.00 | 0.00 | 0.00 | 82 | 1023.4 |
| 20260501231510 | 3 | 69 | 0.0 | 20.9 | 0.00 | 0.00 | 0.00 | 81 | 1023.5 |
| 20260501230016 | 3 | 70 | 1.6 | 20.9 | 0.00 | 0.00 | 0.00 | 79 | 1023.6 |
| 20260501224505 | 3 | 81 | 0.0 | 20.9 | 0.00 | 0.00 | 0.00 | 78 | 1023.6 |
| 20260501223003 | 4 | 64 | 0.0 | 20.9 | 0.00 | 0.00 | 0.00 | 77 | 1023.6 |
| 20260501221600 | 4 | 64 | 0.0 | 20.9 | 0.00 | 0.00 | 0.00 | 77 | 1023.6 |
| 20260501220109 | 4 | 60 | 0.0 | 20.9 | 0.00 | 0.00 | 0.00 | 76 | 1023.5 |